User: anonymous   Login
Location: Iesi
(43.5167°N, 13.2333°E)
Time: 01:59:28
(UTC+00:00)
Language:

Cosmos 2123 Rocket - Orbit

View from above orbital plane
View from above orbital plane
View from above satellite
View from above satellite

Ground track
Ground track

The orbit data is extracted from the following two-line orbital elements,

1 21090U 91007B   20302.79776409  .00000014  00000-0 -16967-5 0  9995
2 21090  82.9249  42.8942 0020444 193.8125 166.2475 13.76392136493121
Epoch (UTC): 28 October 2020 19:08:46
Eccentricity: 0.0020444
inclination: 82.9249°
perigee height: 961 km
apogee height: 992 km
right ascension of ascending node: 42.8942°
argument of perigee: 193.8125°
revolutions per day: 13.76392136
mean anomaly at epoch: 166.2475°
orbit number at epoch: 49312

The dashed part of the orbit path shows where the satellite is in the earth's shadow,  

DLR